Location: Godiavel Galaoual
(15.2485°N, 12.6604°W)
Time: 14:35:52
(UTC+00:00)

Courier 1B Rocket - All Passes

Search period start: 22 June 2021 00:00
Search period end: 02 July 2021 00:00
Orbit: 920 x 1202 km, 28.2° (Epoch: 21 June)

Date Brightness Start Highest point End Pass type
(mag) Time Alt. Az. Time Alt. Az. Time Alt. Az.
22 Jun - 00:03:43 10° WNW 00:09:59 64° NNE 00:16:10 10° ESE visible
22 Jun - 01:57:35 10° W 02:03:18 39° SSW 02:09:09 10° SE night (unlit)
22 Jun - 13:33:39 10° S 13:37:59 16° SSE 13:42:17 10° ESE daylight
22 Jun - 15:24:18 10° SW 15:31:47 52° SSE 15:38:52 10° ENE daylight
22 Jun - 17:18:10 10° W 17:25:35 59° NNW 17:32:30 10° ENE daylight
22 Jun - 19:13:45 10° WNW 19:19:53 30° N 19:25:39 10° NE daylight
22 Jun - 21:09:00 10° NW 21:14:34 27° N 21:19:53 10° ENE visible
22 Jun - 23:02:40 10° NW 23:08:52 47° NNE 23:14:50 10° E visible
23 Jun - 00:56:12 10° WNW 01:02:21 59° SSW 01:08:30 10° SE night (unlit)
23 Jun - 02:52:08 10° WSW 02:55:37 15° SSW 02:59:08 10° S night (unlit)
23 Jun - 14:23:29 10° SSW 14:30:30 36° SSE 14:37:17 10° E daylight
23 Jun - 16:16:32 10° WSW 16:24:15 80° NNW 16:31:31 10° ENE daylight
23 Jun - 18:11:43 10° W 18:18:24 36° NNW 18:24:41 10° NE daylight
23 Jun - 20:07:22 10° NW 20:13:04 26° N 20:18:29 10° NE visible
23 Jun - 22:01:34 10° NW 22:07:37 37° NNE 22:13:23 10° E visible
23 Jun - 23:54:59 10° WNW 00:01:23 88° SSW 00:07:37 10° ESE visible
24 Jun - 01:49:41 10° W 01:54:35 24° SSW 01:59:32 10° SSE night (unlit)
24 Jun - 13:23:05 10° SSW 13:29:12 25° SSE 13:35:13 10° E daylight
24 Jun - 15:15:08 10° WSW 15:22:56 76° SSE 15:30:22 10° ENE daylight
24 Jun - 17:09:43 10° W 17:16:57 45° NNW 17:23:44 10° NE daylight
24 Jun - 19:05:30 10° WNW 19:11:31 28° N 19:17:13 10° NE daylight
24 Jun - 21:00:18 10° NW 21:06:15 31° N 21:11:53 10° ENE visible
24 Jun - 22:53:50 10° WNW 23:00:19 66° NNE 23:06:32 10° ESE visible
25 Jun - 00:47:53 10° W 00:53:39 37° SSW 00:59:20 10° SE night (unlit)
25 Jun - 12:23:20 10° S 12:27:52 16° SSE 12:32:24 10° ESE daylight
25 Jun - 14:14:01 10° SW 14:21:37 54° SSE 14:29:01 10° ENE daylight
25 Jun - 16:07:53 10° W 16:15:31 59° NNW 16:22:45 10° ENE daylight
25 Jun - 18:03:29 10° WNW 18:09:58 31° N 18:16:05 10° NE daylight
25 Jun - 19:58:49 10° NW 20:04:47 28° N 20:10:23 10° ENE visible
25 Jun - 21:52:41 10° NW 21:59:10 49° NNE 22:05:17 10° E visible
25 Jun - 23:46:23 10° WNW 23:52:42 58° SSW 23:58:48 10° SE visible
26 Jun - 01:42:38 10° WSW 01:45:54 14° SSW 01:49:09 10° S night (unlit)
26 Jun - 13:13:15 10° SW 13:20:20 37° SSE 13:27:20 10° E daylight
26 Jun - 15:06:16 10° WSW 15:14:07 79° NNW 15:21:41 10° ENE daylight
26 Jun - 17:01:26 10° W 17:08:24 37° NNW 17:15:01 10° NE daylight
26 Jun - 18:57:07 10° WNW 19:03:13 28° N 19:08:57 10° ENE daylight
26 Jun - 20:51:27 10° NW 20:57:51 38° NNE 21:03:53 10° E visible
26 Jun - 22:45:03 10° WNW 22:51:42 86° SSW 22:58:00 10° ESE visible
27 Jun - 00:39:59 10° W 00:44:54 24° SSW 00:49:45 10° SSE night (unlit)
27 Jun - 12:12:54 10° SSW 12:19:02 25° SSE 12:25:13 10° E daylight
27 Jun - 14:04:54 10° WSW 14:12:45 77° SSE 14:20:27 10° ENE daylight
27 Jun - 15:59:27 10° W 16:06:52 46° NNW 16:13:58 10° NE daylight
27 Jun - 17:55:13 10° WNW 18:01:35 29° N 18:07:38 10° NE daylight
27 Jun - 19:50:05 10° NW 19:56:26 33° N 20:02:23 10° ENE visible
27 Jun - 21:43:47 10° WNW 21:50:36 68° NNE 21:56:59 10° ESE visible
27 Jun - 23:38:02 10° W 23:43:57 37° SSW 23:49:40 10° SE visible
28 Jun - 11:13:14 10° S 11:17:44 16° SSE 11:22:18 10° ESE daylight
28 Jun - 13:03:51 10° SW 13:11:25 55° SSE 13:18:59 10° ENE daylight
28 Jun - 14:57:39 10° W 15:05:22 59° NNW 15:12:52 10° ENE daylight
28 Jun - 16:53:11 10° WNW 16:59:57 32° N 17:06:23 10° NE daylight
28 Jun - 18:48:32 10° NW 18:54:53 30° N 19:00:51 10° ENE daylight
28 Jun - 20:42:32 10° NW 20:49:23 51° NNE 20:55:45 10° E visible
28 Jun - 22:36:24 10° WNW 22:42:59 57° SSW 22:49:12 10° SE visible
29 Jun - 00:32:55 10° WSW 00:36:10 14° SSW 00:39:22 10° S night (unlit)
29 Jun - 12:03:09 10° SW 12:10:08 38° SSE 12:17:14 10° E daylight
29 Jun - 13:56:05 10° WSW 14:03:55 78° NNW 14:11:42 10° ENE daylight
29 Jun - 15:51:10 10° W 15:58:18 38° NNW 16:05:13 10° NE daylight
29 Jun - 17:46:49 10° WNW 17:53:14 29° N 17:59:22 10° ENE daylight
29 Jun - 19:41:13 10° NW 19:48:00 40° NNE 19:54:21 10° E visible
29 Jun - 21:34:57 10° WNW 21:41:57 84° SSW 21:48:26 10° ESE visible
29 Jun - 23:30:06 10° W 23:35:11 24° SSW 23:40:06 10° SSE visible
30 Jun - 11:02:53 10° SSW 11:08:53 26° SSE 11:15:02 10° E daylight
30 Jun - 12:54:47 10° WSW 13:02:32 78° SSE 13:10:23 10° ENE daylight
30 Jun - 14:49:15 10° W 14:56:43 46° NNW 15:04:03 10° NE daylight
30 Jun - 16:44:55 10° WNW 16:51:32 30° N 16:57:55 10° NE daylight
30 Jun - 18:39:47 10° NW 18:46:30 34° N 18:52:49 10° ENE daylight
30 Jun - 20:33:36 10° WNW 20:40:47 71° NNE 20:47:26 10° ESE visible
30 Jun - 22:28:01 10° W 22:34:12 37° SSW 22:40:04 10° SE visible
01 Jul - 10:03:20 10° S 10:07:38 16° SSE 10:12:04 10° ESE daylight
01 Jul - 11:53:49 10° SW 12:01:13 56° SSE 12:08:51 10° ENE daylight
01 Jul - 13:47:31 10° W 13:55:10 59° NNW 14:02:51 10° ENE daylight
01 Jul - 15:42:57 10° WNW 15:49:50 33° N 15:56:33 10° NE daylight
01 Jul - 17:38:13 10° NW 17:44:53 31° N 17:51:13 10° ENE daylight
01 Jul - 19:32:16 10° WNW 19:39:29 53° NNE 19:46:11 10° E visible
01 Jul - 21:26:17 10° WNW 21:33:11 57° SSW 21:39:37 10° SE visible
01 Jul - 23:22:59 10° WSW 23:26:24 14° SSW 23:29:45 10° S visible
